Regional Weather Roundup
Issued by NWS Newport/Morehead, NC

Current Version | Previous Version | Graphics & Text | Print | Product List | Glossary Off
Versions: 1 2 3 4 5 6 7 8 9 10 11 12 13 14 15 16 17 18 19 20 21 22 23 24 25 26 27 28 29 30 31 32 33 34 35 36 37 38 39 40 41 42 43 44 45 46 47 48 49 50

000
ASUS42 KMHX 240013
RWRMHX
WEATHER ROUNDUP FOR EASTERN NORTH CAROLINA
NATIONAL WEATHER SERVICE NEWPORT/MOREHEAD CITY NC
700 PM EST FRI FEB 23 2018

NOTE: "FAIR" INDICATES FEW OR NO CLOUDS BELOW 12,000 FEET
WITH NO SIGNIFICANT WEATHER AND/OR OBSTRUCTIONS TO VISIBILITY

NCZ015>017-031-032-045>047-102-103-240100-
NORTH COAST

CITY           SKY/WX    TMP DP  RH WIND       PRES   REMARKS
EDENTON        FAIR      57  54  89 E5        30.38S
ELIZABETH CITY FAIR      54  53  97 SE10      30.38R
KITTY HAWK     FOG      N/A N/A N/A CALM      30.38S VSB 1/2
MANTEO         FOG       49  49 100 E5        30.40R VSB 3/4

$$

NCZ045>047-081-094-103-104-240100-
CENTRAL COAST

CITY           SKY/WX    TMP DP  RH WIND       PRES   REMARKS
FRISCO         MOCLDY    56  54  93 CALM      30.38S

$$

NCZ095-097-098-100-101-240100-
SOUTHERN COAST

CITY           SKY/WX    TMP DP  RH WIND       PRES   REMARKS
BEAUFORT       MOCLDY    65  63  93 VRB5      30.37S
CEDAR ISLAND   NOT AVBL
JACKSONVILLE   CLOUDY    65  64  97 SE3       30.36R
PINEY ISLAND   NOT AVBL
WILMINGTON     MOCLDY    67  64  90 CALM      30.35S


$$

NCZ011>013-027>030-043-044-078>080-089-090>093-098-240100-
COASTAL PLAIN

CITY           SKY/WX    TMP DP  RH WIND       PRES   REMARKS
AHOSKIE        FAIR      52  51  98 CALM      30.36F
CLINTON        MOCLDY    72  64  77 SE3       30.34R
ELIZABETHTOWN  NOT AVBL
GOLDSBORO      FAIR      69  60  73 NE3       30.32S
GREENVILLE     FAIR      63  57  82 CALM      30.36R
HAVELOCK       MOCLDY    65  63  93 SE5       30.38R
KENANSVILLE    FAIR      68  63  83 SE6       30.35R
KINSTON        NOT AVBL
NEW BERN       FAIR      65  61  87 S9        30.37R
RICHLANDS      CLOUDY    66  62  87 SE6       30.37R
ROCKY MOUNT    FAIR      60  55  83 E3        30.35F
WASHINGTON     CLOUDY    67  60  76 E3        30.36S
WHITEVILLE     FAIR      68  63  85 S6        30.35R

$$

AMZ130-135-150-152-154-156-158-170-250-252-270-ANZ085-086-088-633-658-670-240100-
MARINE OBSERVATIONS

STATION/POSITION TIME  TEMP    WIND        PRES    WAVE   SWELL
                       AIR SEA DIR/SP/G            HT/PER HT/PER
                 (UTC) (F)     (DEG/KT/KT) (MB)    (FT/S) (FT/S)
CHESAPEAKE LIGHT NOT AVBL
64 E VA BEACH    2350   48 51  280/  6/  6 1029.3    5/10   5/10
DUCK             2348      47   60/  4/  5 1028.6
2 E DUCK         0000      46                N/A     4/ 8   2/11
OREGON INLET     2348           30/  4/  5 1029.0
13E OREGON INLT  2248      50                N/A     5/ 8   5/ 8
HATTERAS CG      2348   58 61  110/  3/  5 1028.5
DIAMOND BUOY     0000   69 74  170/  8/ 10 1028.8
CAPE LOOKOUT     0000          170/  6/  6 1028.6
BEAUFORT LAB     2348   63 60  140/  5/  7 1028.4
30 SE NEW RVR IN 2308   68 69  170/ 10/ 12 1028.3
30 SE NEW RVR IN 0000      70                N/A     4/ 9   2/11
27 SE WRIGHTSVLE 2308   69 70  150/ 12/ 16 1028.3
5 SE WRIGHTSVLE  2308   64 60  170/  8/ 12 1027.6
225 S CAPE HAT   2250   72 73  110/  6/  8 1029.5    5/ 9   5/ 9
41 SE CHARLESTON 0000   68 69  140/  4/  6 1027.7

$$




USA.gov is the U.S. government's official web portal to all federal, state and local government web resources and services.